Location: Abyssinia Baptist Church
(32.7840°N, 96.7578°W)
Time: 10:29:47
(UTC+00:00)

H-2A R/B - Pass Details

Date: 28 June 2022
Orbit: 577 x 651 km, 98.5° (Epoch: 07 August)

Event Time Altitude Azimuth Distance (km) Brightness Sun altitude
Rises 03:29:17 0° 356° (N) 2,917 6.3 -19.2°
Reaches altitude 10° 03:31:49 10° 342° (NNW) 2,018 5.6 -19.6°
Maximum altitude 03:35:15 23° 290° (WNW) 1,368 4.5 -20.1°
Drops below altitude 10° 03:38:43 10° 239° (WSW) 2,036 4.8 -20.6°
Sets 03:41:18 0° 224° (SW) 2,950 5.5 -21.0°
